This is the latest recevied weather packets stored in our database for station/object EA1ZE. If no packets are shown the sender has not sent any weather packets the latest 10 day(s).
| Time | Temp. | Humidity | Pressure | Rain* | Wind** | Luminosity | Snow |
|---|---|---|---|---|---|---|---|
| 1777564811 | 17.22° C | 65% | 1016.7 hPa | 0 mm | - | - | - |
| 1777563910 | 17.22° C | 63% | 1016.7 hPa | 0 mm | - | - | - |
| 1777563012 | 17.78° C | 62% | 1016.6 hPa | 0 mm | - | - | - |
| 1777562112 | 17.78° C | 62% | 1016.6 hPa | 0 mm | - | - | - |
| 1777561209 | 17.78° C | 61% | 1016.6 hPa | 0 mm | - | - | - |
| 1777560308 | 17.22° C | 62% | 1016.6 hPa | 0 mm | - | - | - |
| 1777559406 | 17.22° C | 64% | 1016.6 hPa | 0 mm | - | - | - |
| 1777558507 | 17.22° C | 65% | 1016.8 hPa | 0 mm | - | - | - |
| 1777557607 | 17.22° C | 64% | 1016.8 hPa | 0 mm | - | - | - |
| 1777556704 | 17.22° C | 65% | 1016.8 hPa | 0 mm | - | - | - |
| 1777555802 | 16.67° C | 66% | 1016.8 hPa | 0 mm | - | - | - |
| 1777554959 | 16.67° C | 67% | 1016.8 hPa | 0 mm | - | - | - |
| 1777554059 | 16.67° C | 67% | 1016.7 hPa | 0 mm | - | - | - |
| 1777553167 | 16.11° C | 68% | 1016.7 hPa | 0 mm | - | - | - |
| 1777552266 | 16.11° C | 68% | 1016.7 hPa | 0 mm | - | - | - |
| 1777551354 | 16.11° C | 69% | 1016.7 hPa | 0 mm | - | - | - |
| 1777550462 | 15.56° C | 71% | 1016.8 hPa | 0 mm | - | - | - |
| 1777549553 | 15.56° C | 73% | 1016.9 hPa | 0 mm | - | - | - |
| 1777548646 | 14.44° C | 75% | 1017 hPa | 0 mm | - | - | - |
| 1777547745 | 14.44° C | 74% | 1017 hPa | 0 mm | - | - | - |
| 1777546846 | 14.44° C | 74% | 1017 hPa | 0 mm | - | - | - |
| 1777545940 | 13.89° C | 76% | 1017.1 hPa | 0 mm | - | - | - |
| 1777545038 | 13.33° C | 77% | 1017.2 hPa | 0 mm | - | - | - |
| 1777544212 | 13.33° C | 77% | 1017.2 hPa | 0 mm | - | - | - |
| 1777543310 | 12.78° C | 79% | 1017.1 hPa | 0 mm | - | - | - |
* Rain latest hour (hover to see other rain measurements)
** Current wind speed in m/s (hover to see current wind gust speed)